Location: Shepherdstown, WV
(39.4326°N, 77.8042°W)
Time: 10:40:23
(UTC-04:00)

Tiangong - Pass Details

Date: 29 June 2021
Orbit: 374 x 386 km, 41.5° (Epoch: 25 July)

Event Time Altitude Azimuth Distance (km) Brightness Sun altitude
Exits shadow 03:51:39 31° 290° (WNW) 694 2.2 -17.4°
Maximum altitude 03:53:00 80° 12° (NNE) 386 1.0 -17.3°
Drops below altitude 10° 03:56:08 10° 101° (E) 1,386 4.2 -16.9°
Sets 03:58:12 0° 102° (ESE) 2,239 5.3 -16.7°
